www.pogodaiklimat.ru
ПОГОДА в Понка-Сити
Время
и дата
23:53 04.02
00:53 05.02
01:53 05.02
02:53 05.02
03:53 05.02
04:53 05.02
05:53 05.02
06:53 05.02
07:53 05.02
08:53 05.02
09:53 05.02
10:53 05.02
11:53 05.02
12:53 05.02
13:53 05.02
14:53 05.02
15:53 05.02
16:53 05.02
17:53 05.02
18:53 05.02
19:53 05.02
20:53 05.02
21:53 05.02
22:53 05.02
23:53 05.02
00:53 06.02
01:53 06.02
02:53 06.02
03:53 06.02
04:53 06.02
05:53 06.02
06:53 06.02
07:53 06.02
08:53 06.02
09:53 06.02
10:53 06.02
11:53 06.02
12:53 06.02
13:53 06.02
14:53 06.02
15:53 06.02
16:53 06.02
17:53 06.02
18:53 06.02
19:53 06.02
20:53 06.02
21:53 06.02
22:53 06.02
Ветер
(напр.,м/с)
Видим. Явления Облачность Т
(С)
Тd
(С)
f
(%)
Тe
(С)
Тes
(С)
Комфортность P
(гПа)
Po
(гПа)
Тmin
(С)
Tmax
(С)
R
(мм)
R24
(мм)
S
(см)
З 3 16 км ясно +5.0 -1.7 62 +2 +2 1019.6 982.9 +3.3 +14.4
З 3 16 км ясно +3.9 -3.3 59 +1 +1 1019.7 982.9
нст 2 16 км ясно +3.3 -3.3 62 +1 +1 1019.4 982.9
штиль 0 16 км ясно +2.2 -3.9 64 +2 +2 1019.5 982.9
штиль 0 16 км ясно +1.1 -3.9 69 0 0 1019.9 983.3
штиль 0 16 км ясно -1.1 -4.4 78 -2 -2 1020.0 983.3
штиль 0 16 км ясно -3.3 -6.1 81 -4 -4 1020.9 983.9 -3.3 +5.0
штиль 0 16 км ясно -3.3 -5.0 88 -4 -4 1021.3 984.2
штиль 0 16 км ясно -2.2 -5.0 81 -3 -3 1021.5 984.6
штиль 0 16 км ясно +1.1 -2.8 75 0 +1 1021.8 984.9
нст 2 16 км ясно +5.0 -1.1 65 +3 +5 1022.5 985.5
С 2 16 км ясно +9.4 -0.6 50 +8 +13 1022.3 985.5
штиль 0 16 км ясно +12.2 0.0 43 +12 +21 1021.4 984.6 -4.4 +12.8
нст 2 16 км ясно +16.1 -0.6 32 +16 +24 1020.0 983.6
штиль 0 16 км ясно +17.2 -1.1 29 +17 +28 1019.2 982.6
ЮВ 2 16 км ясно +18.3 -2.8 24 +19 +25 1018.6 982.0
Ю 4 16 км ясно +18.3 -3.3 23 +18 +21 1018.1 981.6
В 4 16 км ясно +18.3 -3.3 23 +18 +19 1017.6 981.0
ЮВ 3 16 км ясно +14.4 -3.3 29 +14 +14 1017.3 980.3 +12.8 +18.9
В 3 16 км ясно +12.2 -3.3 34 +11 +11 1017.5 980.7
ЮВ 5 16 км ясно +11.7 -1.7 39 +10 +10 1017.8 981.0
ЮВ 5 16 км ясно +10.0 -1.1 46 +7 +7 1017.7 981.0
ЮВ 5 16 км ясно +10.0 -0.6 48 +7 +7 1016.8 980.3
ЮВ 7 16 км ясно +9.4 0.0 52 +6 +6 1016.1 979.7
ЮВ 5 16 км ясно +10.0 +2.2 58 +7 +7 1014.9 978.7 +8.9 +14.4
ЮВ 7 16 км ясно +11.1 +5.0 66 +8 +8 1013.7 977.7
ЮВ 7 16 км ясно +11.1 +6.1 71 +8 +8 1012.6 976.7
ЮВ 6 16 км ясно +9.4 +5.6 77 +6 +6 1011.7 975.8
ЮВ 6 16 км ясно +8.3 +5.6 83 +4 +4 1011.1 975.1
ЮВ 8 16 км ясно +10.0 +7.2 83 +6 +6 1009.9 974.1
Ю 8
{12}
16 км ясно +11.1 +7.8 80 +8 +8 1009.3 973.5 +8.3 +11.7
Ю 11
{15}
16 км ясно +11.1 +7.8 80 +7 +7 1008.9 972.8
Ю 9
{13}
16 км ясно +11.7 +8.3 80 +8 +8 1008.7 972.8
Ю 7
{11}
16 км ясно +12.2 +8.3 77 +9 +9 1008.5 972.5
Ю 6
{9}
16 км ясно +13.3 +8.3 72 +11 +12 1008.3 972.5
Ю 6
{10}
16 км ясно +16.7 +8.9 60 +16 +18 1008.0 972.2
Ю 6
{12}
16 км ясно +19.4 +7.8 47 +20 +22 1007.5 971.8 +11.1 +19.4
Ю 7
{13}
16 км ясно +19.4 +7.8 47 +20 +22 1006.9 971.5
Ю 6
{11}
16 км ясно +20.0 +7.8 45 +21 +24 комфорт 1006.2 970.5
ЮЗ 7
{10}
16 км ясно +20.6 +7.8 44 +21 +23 комфорт 1006.0 970.2
Ю 6
{10}
16 км ясно +21.7 +7.8 41 +23 +25 комфорт 1006.1 970.5
ЮЗ 7
{10}
16 км ясно +20.6 +6.7 40 +21 +22 комфорт 1006.5 970.9
З 2 16 км ясно +17.8 +6.1 46 +18 +19 1008.1 972.5 +17.8 +21.7
штиль 0 16 км ясно +16.7 +6.7 52 +17 +17 1009.1 973.5
С 6 16 км ясно +14.4 +1.1 40 +13 +13 1010.7 974.8
С 6 16 км ясно +11.7 0.0 44 +9 +9 1012.3 976.1
С 6 16 км ясно +10.0 0.0 50 +7 +7 1013.6 977.4
С 4 16 км ясно +8.3 +0.6 58 +6 +6 1014.0 978.0
Местоположение метеостанции Ponca City Municipal Airport: широта 36.7306 долгота -97.0997 высота над уровнем моря 307 м.
В архиве по умолчанию представлена погода в Понка-Сити за последние 1-2 суток. Обновление информации о фактической погоде в базе происходит ежечасно! Архивные данные за месяц целиком и за предыдущие месяцы Вы можете получить, выбрав интересующий диапазон дат из раскрывающегося списка и нажав кнопку "Ввод!".
Внимание! Архив погоды МЕТАР в базе сайта по станциям, не включенным в климатический монитор, хранится не более 60 дней. Нет смысла пытаться выбрать более раннюю дату.
*Определитесь, кто Вы:
Внимание! Время в таблицах - местное (без учета летнего времени). Для получения всемирного времени необходимо вычесть поправку, которая равна -6 ч.
Смотрите также архив погоды в соседних городах и на ближайших метеорологических станциях:
Партнеры нашего сайта:      
Пояснения к столбцам:
  • Ветер - указаны скорость ветра в м/с - средняя за 10 мин, порывы в срок и между сроками (в фигурных скобках) и направление, откуда дует ветер: С - северный,
  • СВ - северо-восточный, В - восточный, ЮВ - юго-восточный, Ю - южный, ЮЗ - юго-западный, З - западный, СЗ - северо-западный.
  • Видимость - горизонтальная дальность видимости в метрах или километрах. При видимости от 1 до 10 км при отсутствии осадков обычно наблюдается дымка, при ухудшении видимости до 1 км и менее - туман. В сухую погоду видимость может ухудшаться дымом, пылью или мглою.
  • Явления - указаны атмосферные явления, наблюдавшиеся в срок или в последний час перед сроком; фигурными скобками обозначены явления, наблюдавшиеся между сроками (за 1-3 часа до срока); квадратными скобками обозначены град или гололедные отложения с указанием их диаметра в мм.
  • Облачность - указаны через наклонную черту общая и нижняя облачность в баллах и высота нижней границы облаков в метрах; квадратными скобками обозначены формы облаков: Ci - перистые, Cs - перисто-слоистые, Cc - перисто-кучевые, Ac - высококучевые, As - высокослоистые, Sc - слоисто-кучевые, Ns - слоисто-дождевые, Cu - кучевые, Cb - кучево-дождевые. Подробнее классификацию облаков см. в Атласе облаков (PDF).
  • T - Температура воздуха - температура, измеренная на высоте 2 м над землей.
  • Td - Температура точки росы - температура, при понижении до которой содержащийся в воздухе водяной пар достигнет насыщения.
  • f - Относительная влажность воздуха - влажноcть воздуха, измеренная на высоте 2 м над землей.
  • Te - Эффективная температура - температура, которую ощущает одетый по сезону человек в тени. Характеристика душности погоды. При расчете учитывается влияние влажности воздуха и скорости ветра на теплоощущения человека.
  • Tes - Эффективная температура на солнце - температура, которую ощущает человек, с поправкой на солнечный нагрев. Характеристика знойности погоды. Зависит от высоты солнца над горизонтом, облачности и скорости ветра. Ночью, в пасмурную погоду, а также при ветре 12 м/с и более поправка равна нулю.
  • P - Атмосферное давление - приведенное к уровню моря атмосферное давление.
  • Po - Атмосферное давление - измеренное на уровне метеостанции атмосферное давление.
  • Tmin - Минимальная температура - минимум температуры воздуха на высоте 2 м над землей.
  • Tmax - Максимальная температура - максимум температуры воздуха на высоте 2 м над землей.
  • R - Количество осадков - Количество выпавших осадков за период времени, мм. При наведении курсора мыши на число - период времени, за который выпало указанное количество осадков.
  • R24 - Количество осадков - Количество выпавших осадков за 24 часа, мм.
  • S - Снежный покров - Высота снежного покрова, см. При наведении курсора мыши на число - состояние снежного покрова и степень покрытия местности в баллах.